Tracking 19476 objects as of 17-Jan-2019
HD Live streaming from Space Station
objects crossing your sky now

COSMOS 2026

Track COSMOS 2026 now!
10-day predictions
COSMOS 2026 is classified as:


NORAD ID: 20045
Int'l Code: 1989-042A
Perigee: 956.1 km
Apogee: 1,014.2 km
Inclination: 82.9 °
Period: 104.6 minutes
Semi major axis: 7356 km
RCS: 2.3991 m2 (large)
Launch date: June 7, 1989
Source: Commonwealth of Independent States (former USSR) (CIS)
Launch site: PLESETSK MISSILE AND SPACE COMPLEX (PKMTR)
aabbcc
Your satellite tracking list
Your tracking list is empty




NASA's NSSDC Master Catalog

Two Line Element Set (TLE):
1 20045U 89042A   19016.82230705  .00000022  00000-0  70887-5 0  9997
2 20045  82.9399 258.8797 0039468 332.7653  78.9929 13.76024284487019
Source of the keplerian elements: AFSPC